This is the latest recevied weather packets stored in our database for station/object W5ADC. If no packets are shown the sender has not sent any weather packets the latest 1 day(s).
| Time | Temp. | Humidity | Pressure | Rain* | Wind** | Luminosity | Snow |
|---|---|---|---|---|---|---|---|
| 1777987654 | 22.78° C | 85% | 1001.1 hPa | 0 mm | 2.68 m/s, 199° | 104 W/m² | - |
| 1777987352 | 22.78° C | 85% | 1001.3 hPa | 0 mm | 1.79 m/s, 160° | 91 W/m² | - |
| 1777987049 | 22.78° C | 85% | 1001.4 hPa | 0 mm | 3.58 m/s, 169° | 95 W/m² | - |
| 1777986746 | 22.22° C | 85% | 1001.5 hPa | 0 mm | 2.24 m/s, 117° | 74 W/m² | - |
| 1777986444 | 22.22° C | 85% | 1001.3 hPa | 0 mm | 3.58 m/s, 207° | 74 W/m² | - |
| 1777986143 | 22.22° C | 86% | 1001 hPa | 0 mm | 2.24 m/s, 126° | 74 W/m² | - |
| 1777985839 | 22.22° C | 86% | 1000.8 hPa | 0 mm | 4.92 m/s, 174° | 58 W/m² | - |
| 1777985536 | 22.22° C | 86% | 1000.7 hPa | 0 mm | 3.13 m/s, 105° | 68 W/m² | - |
| 1777985233 | 22.22° C | 86% | 1000.6 hPa | 0 mm | 2.68 m/s, 178° | 60 W/m² | - |
| 1777984930 | 22.22° C | 86% | 1000.6 hPa | 0 mm | 3.58 m/s, 123° | 37 W/m² | - |
| 1777984625 | 22.22° C | 86% | 1000.7 hPa | 0 mm | 2.24 m/s, 178° | 31 W/m² | - |
| 1777984322 | 22.22° C | 86% | 1000.4 hPa | 0 mm | 1.79 m/s, 186° | 32 W/m² | - |
| 1777984019 | 22.22° C | 86% | 1000.3 hPa | 0 mm | 1.34 m/s, 219° | 29 W/m² | - |
| 1777983716 | 22.22° C | 86% | 1000.3 hPa | 0 mm | 1.34 m/s, 182° | 24 W/m² | - |
| 1777983413 | 22.22° C | 86% | 1000.3 hPa | 0 mm | 3.13 m/s, 211° | 16 W/m² | - |
| 1777983109 | 22.22° C | 86% | 1000.4 hPa | 0 mm | 2.68 m/s, 142° | 17 W/m² | - |
| 1777982805 | 22.22° C | 86% | 1000.1 hPa | 0 mm | 3.58 m/s, 194° | 16 W/m² | - |
| 1777982502 | 22.22° C | 86% | 1000.3 hPa | 0 mm | 2.24 m/s, 202° | 12 W/m² | - |
| 1777982195 | 22.22° C | 86% | 1000.2 hPa | 0 mm | 2.24 m/s, 202° | 9 W/m² | - |
| 1777981894 | 22.22° C | 86% | 1000 hPa | 0 mm | 1.34 m/s, 223° | 5 W/m² | - |
| 1777981590 | 22.22° C | 86% | 1000.2 hPa | 0 mm | 2.24 m/s, 134° | 4 W/m² | - |
| 1777981287 | 22.22° C | 86% | 1000.1 hPa | 0 mm | 2.24 m/s, 206° | 2 W/m² | - |
| 1777980983 | 21.67° C | 86% | 1000 hPa | 0 mm | 2.68 m/s, 127° | 1 W/m² | - |
| 1777980680 | 21.67° C | 86% | 1000.2 hPa | 0 mm | 1.34 m/s, 192° | 1 W/m² | - |
| 1777980376 | 22.22° C | 86% | 999.7 hPa | 0 mm | 1.79 m/s, 148° | 0 W/m² | - |
* Rain latest hour (hover to see other rain measurements)
** Current wind speed in m/s (hover to see current wind gust speed)